Date String (YYYY-MM-DD hh:mm:ss) UTC,Instrument flags,absolute air pressure of the measurement (hPa),sample flow rate (lpm),inlet stack bypass flow (lpm),air temperature of the measurement (°C),ambient temperature measured by the external sensor (°C),aerosol sample conditioner tube jacket temperature (°C),OPC LED temperature (°C),internal box temperature (°C),relative humidity of the measurement (%),span deviation,mass concentration of particles derived from Lorenz-Mie calculation of OPC scattering (μg/m³),mass concentration of particles derived from Lorenz-Mie calculation of OPC scattering (μg/m³),mass concentration of particles derived from Lorenz-Mie calculation of OPC scattering (μg/m³)
DateTimeUTC,F1_M11,P_M11,Q1_M11,Q2_M11,T1_M11,T2_M11,T3_M11,T4_M11,T5_M11,U1_M11,ZSPAN_M11,X2_M11,X0_M11,X1_M11
2023-08-29 13:00:00,SystemResetWarning,0839.4,5.00,000.00,028.8,027.4,000.0,037.4,030.3,25.5,0000.0,0003.22,0005.93,0002.83
2023-08-29 13:01:00,SystemResetWarning,0839.4,5.00,000.00,028.8,027.5,000.0,037.4,030.3,25.4,0000.0,0003.23,0006.11,0002.83
2023-08-29 13:02:00,SystemResetWarning,0839.4,5.00,000.00,028.8,027.5,000.0,037.4,030.3,25.2,0000.0,0003.24,0006.15,0002.84
2023-08-29 13:03:00,SystemResetWarning,0839.4,4.99,000.00,028.8,027.5,000.0,037.4,030.3,25.6,0000.0,0003.24,0006.32,0002.84
2023-08-29 13:04:00,SystemResetWarning,0839.3,4.99,000.00,028.8,027.5,000.0,037.4,030.4,25.6,0000.0,0003.22,0006.15,0002.85
2023-08-29 13:05:00,SystemResetWarning,0839.3,5.00,000.00,028.8,027.5,000.0,037.4,030.4,25.2,0000.0,0003.21,0006.08,0002.86
2023-08-29 13:06:00,SystemResetWarning,0839.3,5.01,000.00,028.8,027.5,000.0,037.4,030.4,25.1,0000.0,0003.20,0006.29,0002.86
2023-08-29 13:07:00,SystemResetWarning,0839.3,5.00,000.00,028.8,027.5,000.0,037.4,030.4,25.1,0000.0,0003.18,0005.39,0002.85
2023-08-29 13:08:00,SystemResetWarning,0839.3,5.01,000.00,028.8,027.5,000.0,037.5,030.4,25.1,0000.0,0003.15,0005.13,0002.84
2023-08-29 13:09:00,SystemResetWarning,0839.3,4.99,000.00,028.8,027.5,000.0,037.5,030.4,25.1,0000.0,0003.14,0005.16,0002.84
2023-08-29 13:10:00,SystemResetWarning,0839.4,4.99,000.00,028.8,027.5,000.0,037.5,030.4,24.9,0000.0,0003.15,0005.15,0002.84
2023-08-29 13:11:00,SystemResetWarning,0839.4,5.00,000.00,028.9,027.5,000.0,037.5,030.4,25.2,0000.0,0003.12,0005.00,0002.84
2023-08-29 13:12:00,SystemResetWarning,0839.4,5.01,000.00,028.9,027.5,000.0,037.5,030.4,25.4,0000.0,0003.10,0004.85,0002.84
2023-08-29 13:13:00,SystemResetWarning,0839.4,5.00,000.00,028.9,027.6,000.0,037.5,030.4,25.3,0000.0,0003.11,0004.93,0002.83
2023-08-29 13:14:00,SystemResetWarning,0839.4,4.99,000.00,028.9,027.6,000.0,037.5,030.5,25.5,0000.0,0003.13,0004.84,0002.83
2023-08-29 13:15:00,SystemResetWarning,0839.4,4.99,000.00,028.9,027.6,000.0,037.5,030.5,25.5,0000.0,0003.14,0005.84,0002.84
2023-08-29 13:16:00,SystemResetWarning,0839.3,5.00,000.00,028.9,027.6,000.0,037.5,030.5,26.3,0000.0,0003.14,0006.06,0002.84
2023-08-29 13:17:00,SystemResetWarning,0839.4,5.00,000.00,028.9,027.6,000.0,037.5,030.5,26.2,0000.0,0003.15,0005.95,0002.84
2023-08-29 13:18:00,SystemResetWarning,0839.4,5.00,000.00,028.9,027.7,000.0,037.6,030.5,26.5,0000.0,0003.14,0005.35,0002.83
2023-08-29 13:19:00,SystemResetWarning,0839.4,5.01,000.00,029.0,027.7,000.0,037.6,030.5,26.3,0000.0,0003.14,0005.27,0002.83
2023-08-29 13:20:00,SystemResetWarning,0839.4,4.99,000.00,029.0,027.7,000.0,037.6,030.5,26.8,0000.0,0003.13,0005.16,0002.82
2023-08-29 13:21:00,SystemResetWarning,0839.5,4.99,000.00,029.0,027.7,000.0,037.6,030.6,27.1,0000.0,0003.15,0005.25,0002.82
2023-08-29 13:22:00,SystemResetWarning,0839.5,5.00,000.00,029.0,027.7,000.0,037.6,030.6,27.1,0000.0,0003.15,0005.47,0002.81
2023-08-29 13:23:00,SystemResetWarning,0839.4,5.00,000.00,029.0,027.8,000.0,037.6,030.6,27.2,0000.0,0003.16,0006.29,0002.81
2023-08-29 13:24:00,SystemResetWarning,0839.4,5.00,000.00,029.0,027.8,000.0,037.6,030.6,27.9,0000.0,0003.18,0007.38,0002.82
2023-08-29 13:25:00,SystemResetWarning,0839.5,5.00,000.00,029.0,027.7,000.0,037.6,030.6,28.7,0000.0,0003.18,0007.40,0002.81
2023-08-29 13:26:00,SystemResetWarning,0839.4,4.98,000.00,029.0,026.2,000.0,037.5,030.4,28.9,0000.0,0003.16,0006.77,0002.79
2023-08-29 13:27:00,SystemResetWarning,0839.4,5.01,000.00,028.9,024.5,000.0,037.3,030.1,28.9,0000.0,0003.16,0006.34,0002.80
2023-08-29 13:28:00,SystemResetWarning,0839.4,5.01,000.00,028.8,024.1,000.0,037.2,029.8,28.9,0000.0,0003.17,0006.36,0002.81
2023-08-29 13:29:00,SystemResetWarning,0839.4,5.01,000.00,028.6,024.3,000.0,037.3,029.6,28.7,0000.0,0003.17,0006.37,0002.82
2023-08-29 13:30:00,SystemResetWarning,0839.4,4.99,000.00,028.5,024.7,000.0,037.3,029.7,28.7,0000.0,0003.20,0006.52,0002.82
2023-08-29 13:31:00,SystemResetWarning,0839.4,5.00,000.00,028.5,025.2,000.0,037.3,029.8,28.8,0000.0,0003.20,0006.54,0002.83
2023-08-29 13:32:00,SystemResetWarning,0839.5,5.01,000.00,028.5,025.6,000.0,037.3,029.8,29.7,0000.0,0003.18,0006.49,0002.82
2023-08-29 13:33:00,SystemResetWarning,0839.5,5.01,000.00,028.5,025.9,000.0,037.2,029.9,30.1,0000.0,0003.17,0006.39,0002.83
2023-08-29 13:34:00,SystemResetWarning,0839.5,5.00,000.00,028.5,026.2,000.0,037.2,029.9,30.3,0000.0,0003.18,0005.66,0002.84
2023-08-29 13:35:00,SystemResetWarning,0839.5,5.00,000.00,028.5,026.5,000.0,037.2,030.0,30.6,0000.0,0003.16,0004.28,0002.85
2023-08-29 13:36:00,SystemResetWarning,0839.5,5.00,000.00,028.5,026.7,000.0,037.2,030.0,30.5,0000.0,0003.14,0004.04,0002.85
2023-08-29 13:37:00,SystemResetWarning,0839.5,5.00,000.00,028.5,026.9,000.0,037.2,030.1,30.7,0000.0,0003.15,0004.09,0002.85
2023-08-29 13:38:00,SystemResetWarning,0839.5,5.00,000.00,028.5,027.0,000.0,037.2,030.1,30.6,0000.0,0003.18,0004.26,0002.82
2023-08-29 13:39:00,SystemResetWarning,0839.5,4.99,000.00,028.6,027.1,000.0,037.2,030.1,30.3,0000.0,0003.17,0004.22,0002.81
2023-08-29 13:40:00,SystemResetWarning,0839.5,4.99,000.00,028.6,027.2,000.0,037.2,030.2,29.8,0000.0,0003.19,0004.32,0002.81
2023-08-29 13:41:00,SystemResetWarning,0839.5,5.00,000.00,028.6,027.3,000.0,037.2,030.2,29.1,0000.0,0003.18,0004.26,0002.81
2023-08-29 13:42:00,SystemResetWarning,0839.5,5.00,000.00,028.6,027.4,000.0,037.2,030.2,29.6,0000.0,0003.17,0004.20,0002.80
2023-08-29 13:43:00,SystemResetWarning,0839.5,5.00,000.00,028.6,027.4,000.0,037.2,030.3,29.4,0000.0,0003.18,0004.24,0002.82
2023-08-29 13:44:00,SystemResetWarning,0839.5,5.01,000.00,028.7,027.5,000.0,037.2,030.3,29.3,0000.0,0003.19,0004.28,0002.84
2023-08-29 13:45:00,SystemResetWarning,0839.5,5.01,000.00,028.7,027.5,000.0,037.3,030.3,29.5,0000.0,0003.19,0004.35,0002.85
2023-08-29 13:46:00,SystemResetWarning,0839.5,5.00,000.00,028.7,027.6,000.0,037.3,030.3,29.5,0000.0,0003.20,0004.45,0002.85
2023-08-29 13:47:00,SystemResetWarning,0839.5,4.99,000.00,028.7,027.6,000.0,037.3,030.4,29.6,0000.0,0003.20,0004.42,0002.85
2023-08-29 13:48:00,SystemResetWarning,0839.5,4.99,000.00,028.8,027.7,000.0,037.3,030.4,29.8,0000.0,0003.19,0004.24,0002.85
2023-08-29 13:49:00,SystemResetWarning,0839.6,5.00,000.00,028.8,027.7,000.0,037.3,030.4,30.0,0000.0,0003.16,0004.38,0002.86
2023-08-29 13:50:00,SystemResetWarning,0839.5,5.00,000.00,028.8,027.7,000.0,037.4,030.4,30.0,0000.0,0003.16,0004.50,0002.87
2023-08-29 13:51:00,SystemResetWarning,0839.5,5.01,000.00,028.8,027.8,000.0,037.4,030.5,29.4,0000.0,0003.13,0004.45,0002.86
2023-08-29 13:52:00,SystemResetWarning,0839.6,5.00,000.00,028.9,027.8,000.0,037.4,030.5,29.5,0000.0,0003.12,0004.47,0002.87
2023-08-29 13:53:00,SystemResetWarning,0839.5,5.01,000.00,028.9,027.8,000.0,037.4,030.5,30.0,0000.0,0003.16,0004.67,0002.87
2023-08-29 13:54:00,SystemResetWarning,0839.6,5.00,000.00,028.9,027.9,000.0,037.4,030.6,30.1,0000.0,0003.15,0004.66,0002.85
2023-08-29 13:55:00,SystemResetWarning,0839.6,4.98,000.00,028.9,027.0,000.0,037.3,030.5,30.2,0000.0,0003.16,0004.73,0002.84
2023-08-29 13:56:00,SystemResetWarning,0839.5,5.00,000.00,028.9,025.2,000.0,037.2,030.2,30.4,0000.0,0003.16,0004.66,0002.82
2023-08-29 13:57:00,SystemResetWarning,0839.5,5.01,000.00,028.8,024.5,000.0,037.1,030.0,30.5,0000.0,0003.17,0004.57,0002.82
2023-08-29 13:58:00,SystemResetWarning,0839.5,5.01,000.00,028.7,024.6,000.0,037.1,029.7,30.3,0000.0,0003.19,0004.70,0002.82
2023-08-29 13:59:00,SystemResetWarning,0839.5,5.01,000.00,028.6,024.9,000.0,037.1,029.7,30.5,0000.0,0003.20,0004.76,0002.82
